Location: Cuzcurrita-R�o Tir�n
(42.5415°N, 2.9642°W)
Time: 20:21:26
(UTC+00:00)

Nadezhda 4 Rocket - Pass Details

Date: 17 January 2021
Orbit: 949 x 993 km, 83.0° (Epoch: 02 March)

Event Time Altitude Azimuth Distance (km) Brightness Sun altitude
Rises 19:25:57 0° 197° (SSW) 3,682 7.3 -25.3°
Reaches altitude 10° 19:28:30 10° 201° (SSW) 2,733 6.6 -25.8°
Maximum altitude 19:34:41 60° 281° (W) 1,111 4.5 -26.9°
Drops below altitude 10° 19:40:51 10° 1° (N) 2,722 6.3 -28.0°
Sets 19:43:24 0° 5° (N) 3,666 6.9 -28.5°
